TimePDT,TemperatureF,Dew PointF,Humidity,Sea Level PressureIn,VisibilityMPH,Wind Direction,Wind SpeedMPH,Gust SpeedMPH,PrecipitationIn,Events,Conditions,WindDirDegrees,DateUTC
12:52 AM,75.0,45.0,34,29.79,10.0,NW,9.2,-,N/A,,Clear,310,2013-10-04 07:52:00
1:52 AM,77.0,28.0,17,29.81,10.0,WNW,10.4,-,N/A,,Clear,300,2013-10-04 08:52:00
2:52 AM,75.9,19.0,12,29.82,9.0,WNW,12.7,-,N/A,,Clear,290,2013-10-04 09:52:00
3:52 AM,73.9,14.0,10,29.85,9.0,WNW,11.5,-,N/A,,Clear,300,2013-10-04 10:52:00
4:52 AM,73.9,10.0,9,29.87,8.0,WNW,9.2,-,N/A,,Clear,300,2013-10-04 11:52:00
5:52 AM,73.0,10.0,9,29.90,8.0,NW,12.7,18.4,N/A,,Clear,310,2013-10-04 12:52:00
6:52 AM,71.1,12.9,11,29.94,7.0,WNW,11.5,-,N/A,,Clear,300,2013-10-04 13:52:00
7:52 AM,73.0,15.1,11,29.98,9.0,WNW,13.8,-,N/A,,Clear,300,2013-10-04 14:52:00
8:52 AM,77.0,15.1,10,30.04,10.0,WNW,13.8,-,N/A,,Clear,300,2013-10-04 15:52:00
9:52 AM,79.0,12.9,8,30.05,10.0,WNW,12.7,21.9,N/A,,Clear,290,2013-10-04 16:52:00
10:52 AM,81.0,12.9,8,30.05,10.0,WNW,11.5,-,N/A,,Clear,300,2013-10-04 17:52:00
11:52 AM,84.0,12.9,7,30.02,10.0,NW,16.1,24.2,N/A,,Clear,320,2013-10-04 18:52:00
12:52 PM,84.9,12.9,7,30.00,10.0,NW,16.1,27.6,N/A,,Clear,310,2013-10-04 19:52:00
1:52 PM,86.0,12.0,6,29.98,10.0,WNW,9.2,-,N/A,,Clear,300,2013-10-04 20:52:00
2:52 PM,86.0,10.0,6,29.97,10.0,NNW,8.1,-,N/A,,Clear,330,2013-10-04 21:52:00
3:52 PM,87.1,10.9,6,29.97,10.0,North,10.4,-,N/A,,Clear,360,2013-10-04 22:52:00
4:52 PM,84.9,10.0,6,29.98,10.0,North,11.5,20.7,N/A,,Clear,10,2013-10-04 23:52:00
5:52 PM,82.9,14.0,8,30.02,10.0,North,11.5,-,N/A,,Clear,360,2013-10-05 00:52:00
6:52 PM,78.1,16.0,10,30.01,10.0,North,6.9,-,N/A,,Clear,350,2013-10-05 01:52:00
7:52 PM,73.9,19.0,13,30.04,10.0,WNW,8.1,-,N/A,,Clear,300,2013-10-05 02:52:00
8:52 PM,73.9,18.0,12,30.06,10.0,NW,6.9,-,N/A,,Clear,310,2013-10-05 03:52:00
9:52 PM,73.9,18.0,12,30.09,10.0,NW,6.9,-,N/A,,Clear,310,2013-10-05 04:52:00
10:52 PM,73.0,19.0,13,30.09,10.0,WNW,8.1,-,N/A,,Clear,300,2013-10-05 05:52:00
11:52 PM,71.1,21.0,15,30.12,10.0,NW,9.2,-,N/A,,Clear,310,2013-10-05 06:52:00